ARE4178 SKBO-SKBG

Flight info

Callsign ARE4178
Flight time 0h 34m
Altitude 23000
Route OSUSU4R KOVBU A567 OPROG OPROG1B
Aircraft A320/M-SDE3FGHIRWY/LB1

Departure

Time 2026-04-25 02:10
Airport El Dorado International Airport (SKBO)

Arrival

Time 2026-04-25 02:45
Airport Palonegro Airport (SKBG)
Time Latitude Longitude Altitude Speed Heading
2026-04-25 01:22 4.70070 -74.14426 8371 ft 0 kts 59°
2026-04-25 01:22 4.70061 -74.14442 8373 ft 0 kts 60°
2026-04-25 01:23 4.70031 -74.14388 8371 ft 0 kts 37°
2026-04-25 01:40 4.70030 -74.14389 8373 ft 1 kts 37°
2026-04-25 01:40 4.70018 -74.14398 8373 ft 3 kts 37°
2026-04-25 01:40 4.70004 -74.14409 8373 ft 3 kts 35°
2026-04-25 01:40 4.69986 -74.14420 8372 ft 3 kts 19°
2026-04-25 01:41 4.69967 -74.14424 8373 ft 3 kts 353°
2026-04-25 01:41 4.69949 -74.14418 8373 ft 3 kts 323°
2026-04-25 01:41 4.69935 -74.14404 8373 ft 3 kts 305°
2026-04-25 01:41 4.69924 -74.14387 8371 ft 3 kts 300°
2026-04-25 01:42 4.69916 -74.14374 8373 ft 1 kts 307°
2026-04-25 01:42 4.69921 -74.14381 8373 ft 3 kts 307°
2026-04-25 01:42 4.69933 -74.14397 8373 ft 3 kts 307°
2026-04-25 01:42 4.69943 -74.14410 8373 ft 1 kts 307°
2026-04-25 01:43 4.69943 -74.14411 8373 ft 0 kts 307°
2026-04-25 01:47 4.69977 -74.14454 8370 ft 12 kts 307°
2026-04-25 01:47 4.70028 -74.14521 8370 ft 13 kts 308°
2026-04-25 01:48 4.70075 -74.14584 8373 ft 10 kts 306°
2026-04-25 01:48 4.70133 -74.14621 8373 ft 11 kts
2026-04-25 01:48 4.70200 -74.14584 8373 ft 11 kts 37°
2026-04-25 01:48 4.70243 -74.14551 8373 ft 12 kts 37°
2026-04-25 01:49 4.70313 -74.14498 8370 ft 13 kts 38°
2026-04-25 01:49 4.70413 -74.14422 8372 ft 14 kts 36°
2026-04-25 01:49 4.70475 -74.14408 8371 ft 14 kts 340°
2026-04-25 01:49 4.70543 -74.14484 8373 ft 15 kts 308°
2026-04-25 01:50 4.70608 -74.14570 8372 ft 16 kts 306°
2026-04-25 01:50 4.70677 -74.14661 8371 ft 17 kts 307°
2026-04-25 01:50 4.70750 -74.14758 8371 ft 18 kts 307°
2026-04-25 01:50 4.70826 -74.14860 8372 ft 19 kts 307°
2026-04-25 01:51 4.70907 -74.14966 8374 ft 20 kts 307°
2026-04-25 01:51 4.70991 -74.15077 8373 ft 20 kts 307°
2026-04-25 01:51 4.71074 -74.15187 8373 ft 13 kts 307°
2026-04-25 01:51 4.71152 -74.15222 8373 ft 13 kts 353°
2026-04-25 01:52 4.71213 -74.15229 8373 ft 0 kts 354°
2026-04-25 02:08 4.71214 -74.15229 8373 ft 2 kts 354°
2026-04-25 02:08 4.71275 -74.15232 8372 ft 12 kts
2026-04-25 02:08 4.71305 -74.15168 8371 ft 13 kts 119°
2026-04-25 02:09 4.71297 -74.15155 8371 ft 0 kts 121°
2026-04-25 02:09 4.71280 -74.15127 8371 ft 24 kts 121°
2026-04-25 02:10 4.71024 -74.14777 8371 ft 97 kts 132°
2026-04-25 02:10 4.70486 -74.14079 8370 ft 154 kts 127°
2026-04-25 02:10 4.69748 -74.13119 8630 ft 179 kts 127°
2026-04-25 02:10 4.68990 -74.12132 9394 ft 179 kts 122°
2026-04-25 02:11 4.68615 -74.10975 9944 ft 177 kts 80°
2026-04-25 02:11 4.69159 -74.09846 10168 ft 192 kts 41°
2026-04-25 02:11 4.70376 -74.09191 10337 ft 210 kts 16°
2026-04-25 02:11 4.71847 -74.08724 10487 ft 233 kts 16°
2026-04-25 02:12 4.73427 -74.08219 10854 ft 242 kts 17°
2026-04-25 02:12 4.75022 -74.07702 11346 ft 246 kts 17°
2026-04-25 02:12 4.76661 -74.07164 11881 ft 249 kts 17°
2026-04-25 02:12 4.78315 -74.06616 12421 ft 251 kts 17°
2026-04-25 02:13 4.80002 -74.06056 12801 ft 261 kts 18°
2026-04-25 02:13 4.81792 -74.05454 13069 ft 279 kts 18°
2026-04-25 02:13 4.83667 -74.04818 13540 ft 292 kts 18°
2026-04-25 02:13 4.85648 -74.04149 13754 ft 316 kts 18°
2026-04-25 02:14 4.87808 -74.03419 13936 ft 339 kts 18°
2026-04-25 02:14 4.90098 -74.02641 14292 ft 353 kts 18°
2026-04-25 02:14 4.92440 -74.01844 14885 ft 358 kts 18°
2026-04-25 02:14 4.94816 -74.01037 15526 ft 362 kts 18°
2026-04-25 02:15 4.97224 -74.00222 16172 ft 366 kts 18°
2026-04-25 02:15 4.99647 -73.99403 16769 ft 370 kts 18°
2026-04-25 02:15 5.02093 -73.98580 16952 ft 371 kts 17°
2026-04-25 02:15 5.04567 -73.97856 16990 ft 370 kts 14°
2026-04-25 02:16 5.07035 -73.97230 16974 ft 370 kts 13°
2026-04-25 02:16 5.09541 -73.96635 16966 ft 369 kts 12°
2026-04-25 02:16 5.12041 -73.96054 16960 ft 370 kts 12°
2026-04-25 02:16 5.14555 -73.95464 16943 ft 370 kts 13°
2026-04-25 02:17 5.17080 -73.94860 17432 ft 374 kts 13°
2026-04-25 02:17 5.19618 -73.94241 18060 ft 376 kts 13°
2026-04-25 02:17 5.22173 -73.93611 18629 ft 380 kts 13°
2026-04-25 02:17 5.24761 -73.92966 19205 ft 384 kts 13°
2026-04-25 02:18 5.27326 -73.92324 19739 ft 387 kts 13°
2026-04-25 02:18 5.29981 -73.91658 20263 ft 390 kts 13°
2026-04-25 02:18 5.32581 -73.91007 20765 ft 393 kts 13°
2026-04-25 02:18 5.35268 -73.90336 21249 ft 397 kts 14°
2026-04-25 02:19 5.37960 -73.89666 21714 ft 400 kts 13°
2026-04-25 02:19 5.40681 -73.88990 22170 ft 404 kts 14°
2026-04-25 02:19 5.43417 -73.88308 22619 ft 407 kts 14°
2026-04-25 02:19 5.46179 -73.87619 23060 ft 410 kts 14°
2026-04-25 02:20 5.48957 -73.86927 23224 ft 411 kts 14°
2026-04-25 02:20 5.51697 -73.86234 23246 ft 402 kts 16°
2026-04-25 02:20 5.54289 -73.85238 23245 ft 399 kts 26°
2026-04-25 02:20 5.56720 -73.83889 23235 ft 398 kts 29°
2026-04-25 02:21 5.59131 -73.82522 23229 ft 398 kts 29°
2026-04-25 02:21 5.61512 -73.81174 23223 ft 398 kts 29°
2026-04-25 02:21 5.63926 -73.79807 23220 ft 398 kts 29°
2026-04-25 02:21 5.66347 -73.78436 23205 ft 398 kts 29°
2026-04-25 02:22 5.68763 -73.77069 23201 ft 398 kts 29°
2026-04-25 02:22 5.71184 -73.75701 23151 ft 398 kts 29°
2026-04-25 02:22 5.73596 -73.74340 23145 ft 398 kts 29°
2026-04-25 02:22 5.76010 -73.72975 23138 ft 398 kts 29°
2026-04-25 02:23 5.78401 -73.71620 23135 ft 398 kts 29°
2026-04-25 02:23 5.80816 -73.70252 23129 ft 398 kts 29°
2026-04-25 02:23 5.83225 -73.68887 23122 ft 398 kts 29°
2026-04-25 02:23 5.85645 -73.67511 23117 ft 398 kts 29°
2026-04-25 02:24 5.88060 -73.66139 23111 ft 398 kts 29°
2026-04-25 02:24 5.90440 -73.64789 23107 ft 398 kts 29°
2026-04-25 02:24 5.92856 -73.63419 23099 ft 398 kts 29°
2026-04-25 02:24 5.95272 -73.62052 23093 ft 398 kts 29°
2026-04-25 02:25 5.97689 -73.60687 23088 ft 398 kts 29°
2026-04-25 02:25 6.00102 -73.59323 23083 ft 398 kts 29°
2026-04-25 02:25 6.02517 -73.57957 23077 ft 398 kts 29°
2026-04-25 02:25 6.04937 -73.56590 23073 ft 398 kts 29°
2026-04-25 02:26 6.07355 -73.55222 23070 ft 398 kts 29°
2026-04-25 02:26 6.09772 -73.53850 23067 ft 398 kts 29°
2026-04-25 02:26 6.12158 -73.52495 23062 ft 398 kts 29°
2026-04-25 02:26 6.14568 -73.51127 23057 ft 398 kts 29°
2026-04-25 02:27 6.16991 -73.49752 23050 ft 405 kts 29°
2026-04-25 02:27 6.19464 -73.48350 23031 ft 410 kts 29°
2026-04-25 02:27 6.21958 -73.46937 22681 ft 405 kts 29°
2026-04-25 02:27 6.24387 -73.45562 21666 ft 400 kts 29°
2026-04-25 02:28 6.26776 -73.44210 20643 ft 396 kts 29°
2026-04-25 02:28 6.29135 -73.42871 20062 ft 382 kts 29°
2026-04-25 02:28 6.31411 -73.41575 19575 ft 366 kts 29°
2026-04-25 02:28 6.33589 -73.40336 19108 ft 353 kts 28°
2026-04-25 02:29 6.35701 -73.39139 18652 ft 341 kts 28°
2026-04-25 02:29 6.37736 -73.37982 18216 ft 330 kts 28°
2026-04-25 02:29 6.39715 -73.36856 17729 ft 323 kts 28°
2026-04-25 02:29 6.41642 -73.35760 17340 ft 314 kts 29°
2026-04-25 02:30 6.43517 -73.34694 16941 ft 305 kts 28°
2026-04-25 02:30 6.45314 -73.33674 16571 ft 297 kts 28°
2026-04-25 02:30 6.47093 -73.32665 16201 ft 289 kts 28°
2026-04-25 02:30 6.48826 -73.31681 15838 ft 283 kts 28°
2026-04-25 02:31 6.50517 -73.30721 15489 ft 276 kts 28°
2026-04-25 02:31 6.52169 -73.29787 15130 ft 268 kts 28°
2026-04-25 02:31 6.53776 -73.28879 14807 ft 260 kts 28°
2026-04-25 02:31 6.55331 -73.27997 14482 ft 253 kts 28°
2026-04-25 02:32 6.56843 -73.27136 14175 ft 247 kts 28°
2026-04-25 02:32 6.58325 -73.26293 13886 ft 240 kts 28°
2026-04-25 02:32 6.59737 -73.25492 13608 ft 227 kts 28°
2026-04-25 02:32 6.61066 -73.24737 13333 ft 217 kts 28°
2026-04-25 02:33 6.62350 -73.24008 13078 ft 207 kts 28°
2026-04-25 02:33 6.63575 -73.23311 12848 ft 198 kts 28°
2026-04-25 02:33 6.64752 -73.22640 12619 ft 192 kts 28°
2026-04-25 02:33 6.65902 -73.21984 12393 ft 190 kts 28°
2026-04-25 02:34 6.67045 -73.21332 12177 ft 188 kts 28°
2026-04-25 02:34 6.68181 -73.20686 11957 ft 187 kts 28°
2026-04-25 02:34 6.69325 -73.20039 11711 ft 189 kts 27°
2026-04-25 02:34 6.70458 -73.19401 11502 ft 183 kts 29°
2026-04-25 02:35 6.71549 -73.18782 11313 ft 182 kts 28°
2026-04-25 02:35 6.72637 -73.18169 11116 ft 180 kts 28°
2026-04-25 02:35 6.73726 -73.17547 10907 ft 176 kts 29°
2026-04-25 02:35 6.74783 -73.16942 10719 ft 173 kts 28°
2026-04-25 02:36 6.75826 -73.16348 10501 ft 171 kts 29°
2026-04-25 02:36 6.76859 -73.15759 10293 ft 170 kts 29°
2026-04-25 02:36 6.77884 -73.15173 10093 ft 169 kts 29°
2026-04-25 02:36 6.78905 -73.14591 9881 ft 168 kts 29°
2026-04-25 02:37 6.79578 -73.14206 9760 ft 168 kts 29°
2026-04-25 02:37 6.80592 -73.13629 9561 ft 167 kts 29°
2026-04-25 02:37 6.81929 -73.12870 9301 ft 169 kts 30°
2026-04-25 02:37 6.83009 -73.12256 9100 ft 183 kts 30°
2026-04-25 02:38 6.84123 -73.11621 8869 ft 185 kts 30°
2026-04-25 02:38 6.85244 -73.10984 8648 ft 185 kts 30°
2026-04-25 02:38 6.85988 -73.10562 8500 ft 185 kts 30°
2026-04-25 02:38 6.87112 -73.09935 8282 ft 184 kts 25°
2026-04-25 02:39 6.88350 -73.09621 8063 ft 184 kts
2026-04-25 02:39 6.89609 -73.09816 7857 ft 184 kts 341°
2026-04-25 02:39 6.90811 -73.10260 7731 ft 183 kts 341°
2026-04-25 02:39 6.91957 -73.10686 7673 ft 168 kts 340°
2026-04-25 02:40 6.93039 -73.11089 7631 ft 165 kts 340°
2026-04-25 02:40 6.94113 -73.11488 7496 ft 164 kts 340°
2026-04-25 02:40 6.95176 -73.11893 7299 ft 163 kts 340°
2026-04-25 02:40 6.96229 -73.12297 7084 ft 163 kts 340°
2026-04-25 02:41 6.97286 -73.12697 6867 ft 162 kts 341°
2026-04-25 02:41 6.98338 -73.13094 6655 ft 161 kts 340°
2026-04-25 02:41 6.99383 -73.13487 6440 ft 160 kts 340°
2026-04-25 02:41 7.00427 -73.13880 6225 ft 160 kts 341°
2026-04-25 02:42 7.01467 -73.14272 6013 ft 159 kts 341°
2026-04-25 02:42 7.02509 -73.14664 5799 ft 160 kts 340°
2026-04-25 02:42 7.03547 -73.15053 5584 ft 159 kts 340°
2026-04-25 02:42 7.04572 -73.15438 5379 ft 159 kts 341°
2026-04-25 02:43 7.05606 -73.15827 5167 ft 159 kts 340°
2026-04-25 02:43 7.06640 -73.16215 4957 ft 159 kts 340°
2026-04-25 02:43 7.07676 -73.16605 4751 ft 158 kts 339°
2026-04-25 02:43 7.08694 -73.16987 4560 ft 154 kts 339°
2026-04-25 02:44 7.09688 -73.17362 4336 ft 151 kts 339°
2026-04-25 02:44 7.10666 -73.17730 4137 ft 149 kts 339°
2026-04-25 02:44 7.11629 -73.18091 3926 ft 146 kts 339°
2026-04-25 02:44 7.12510 -73.18417 3891 ft 115 kts 339°
2026-04-25 02:45 7.12975 -73.18590 3906 ft 28 kts 340°
2026-04-25 02:45 7.13102 -73.18637 3911 ft 24 kts 339°
2026-04-25 02:45 7.13204 -73.18675 3913 ft 10 kts 340°
2026-04-25 02:45 7.13225 -73.18650 3913 ft 9 kts 101°
2026-04-25 02:46 7.13163 -73.18564 3908 ft 18 kts 141°
2026-04-25 02:46 7.13040 -73.18508 3906 ft 21 kts 159°
2026-04-25 02:46 7.12912 -73.18461 3903 ft 18 kts 162°
2026-04-25 02:46 7.12886 -73.18453 3900 ft 0 kts 161°
2026-04-25 02:47 7.12881 -73.18451 3901 ft 1 kts 161°
2026-04-25 02:47 7.12870 -73.18447 3902 ft 2 kts 161°
2026-04-25 02:47 7.12852 -73.18441 3900 ft 4 kts 160°
2026-04-25 02:47 7.12801 -73.18422 3898 ft 9 kts 160°
2026-04-25 02:48 7.12780 -73.18415 3897 ft 1 kts 160°
2026-04-25 02:48 7.12764 -73.18409 3898 ft 4 kts 160°
2026-04-25 02:48 7.12748 -73.18403 3896 ft 0 kts 160°
2026-04-25 02:48 7.12742 -73.18401 3898 ft 2 kts 160°
2026-04-25 02:49 7.12729 -73.18388 3896 ft 6 kts 124°
2026-04-25 02:49 7.12717 -73.18326 3896 ft 10 kts 82°
2026-04-25 02:49 7.12717 -73.18265 3893 ft 8 kts 104°
2026-04-25 02:49 7.12690 -73.18215 3894 ft 8 kts 106°
2026-04-25 02:50 7.12680 -73.18163 3894 ft 7 kts 98°
2026-04-25 02:50 7.12690 -73.18117 3894 ft 6 kts 63°
2026-04-25 02:50 7.12715 -73.18100 3895 ft 3 kts
2026-04-25 02:50 7.12722 -73.18102 3895 ft 0 kts 345°